Regional Weather Roundup
Issued by NWS Wakefield, VA

Home | Current Version | Previous Version | Graphics & Text | Print | Product List | Glossary On
Versions: 1 2 3 4 5 6 7 8 9 10 11 12 13 14 15 16 17 18 19 20 21 22 23 24 25 26 27 28 29 30 31 32 33 34 35 36 37 38 39 40 41 42 43 44 45 46 47 48 49 50
000
ASUS41 KAKQ 280514
RWRAKQ

REGIONAL WEATHER ROUNDUP
NATIONAL WEATHER SERVICE WAKEFIELD VA
100 AM EDT SAT MAR 28 2015

Note: "fair" indicates few or no clouds below 12,000 feet with no
significant weather and/or obstructions to visibility. * = Denotes
station may not report precipitation (e.g., rain,snow,etc.),
thunder or fog.

VAZ042-051-052>054-056-280600-
NORTHERN VIRGINIA

CITY           SKY/WX    TMP DP  RH WIND       PRES   REMARKS
WASH NATIONAL  PTCLDY    42  24  49 NW21G28   29.85R
DULLES         PTCLDY    37  24  59 N12       29.86R
FORT BELVOIR   PTCLDY    40  24  52 NW13G20   29.85R
QUANTICO       CLOUDY    41  24  51 N15G28    29.86R
FREDERICKSBRG* CLOUDY    42  26  52 NW7G16    29.84S
STAFFORD*      CLOUDY    38  24  57 N9        29.89S
WARRENTON      CLOUDY    40  31  71 NW14G23   29.85S
CULPEPER*      CLOUDY    39  27  60 N10       29.86S
MANASSAS*      MOCLDY    37  27  65 N18G25    29.86S
LEESBURG*      CLEAR     36  28  75 N10       29.88R
WINCHESTER     PTCLDY    34  18  51 NW10G18   29.87S
FRONT ROYAL*   CLOUDY    34  21  60 N7G20     29.87R
LURAY*         MOCLDY    36  27  69 N14G20    29.86S
$$

VAZ048-049-060>072-079>083-280600-
CENTRAL AND SOUTH CENTRAL VIRGINIA

CITY           SKY/WX    TMP DP  RH WIND       PRES   REMARKS
RICHMOND       MOCLDY    41  33  73 N9        29.82S
CHESTERFIELD*  CLOUDY    39  28  65 NW5       29.84S
PETERSBURG*    CLOUDY    39  38  96 NW5       29.83R FOG
HANOVER        CLOUDY    41  28  60 VRB7      29.84S
TAPPAHANNOCK*  PTCLDY    38  35  90 CALM      29.82S
QUINTON*       CLOUDY    37  36  93 NW3       29.82R
CHARLOTTSVILLE CLOUDY    40  26  57 N8        29.84R
GORDONSVILLE*  CLOUDY    40  27  60 N5        29.83S
ORANGE*        CLOUDY    41  28  60 N8        29.86R
LOUISA*        CLOUDY    41  28  60 N9G16     29.82S
BUMPASS*       CLOUDY    41  26  55 N9        29.83S
FARMVILLE*     CLOUDY    40  37  89 CALM      29.84R
CREWE*         CLOUDY    40  35  83 MISG      29.83R
FORT PICKETT*  CLOUDY    39  38  97 NW5       29.82R
CHASE CITY*    CLOUDY    40  40 100 N8        29.85R
CLARKSVILLE*   CLOUDY    39  37  93 NW6       29.85R
SOUTH HILL*    CLOUDY    38  36  89 W5        29.89R
LAWRENCEVILLE* CLOUDY    37  37  97 CALM      29.82S
EMPORIA*       CLOUDY    36  36 100 CALM      29.84S
$$

VAZ088>098-280600-
SOUTHEAST VIRGINIA

CITY           SKY/WX    TMP DP  RH WIND       PRES   REMARKS
NORFOLK        CLOUDY    42  37  82 N9        29.78S
VIRGINIA BEACH CLOUDY    43  38  82 N8        29.77S
NORFOLK NAVAL  CLOUDY    44  37  76 NW9       29.80
WEST POINT*    MOCLDY    40  38  91 CALM      29.82F
SALUDA*        CLOUDY    40  38  91 NW6       29.80S
NEWPORT NEWS   CLOUDY    43  37  79 NW7       29.80S
LANGLEY AFB    CLOUDY    40  37  90 NW7       29.78S
FORT EUSTIS    CLOUDY    42  41  99 N7        29.78S
WILLIAMSBURG*  PTCLDY    43  39  87 NW5       29.81F
HR EXEC AP*    CLOUDY    41  37  87 NW3       29.80S
FRANKLIN*      PTCLDY    38  37  96 NW3       29.82R
WAKEFIELD      MOCLDY    39  37  92 W3        29.82R
$$

VAZ020-022-025-037-045-280600-
WEST CENTRAL AND SOUTHWEST VIRGINIA

CITY           SKY/WX    TMP DP  RH WIND       PRES   REMARKS
STAUNTON*      CLOUDY    36  23  58 NW10      29.86R
WAYNESBORO*    MOCLDY    33  22  64 NW5       29.83S
HOT SPRINGS VA CLOUDY    24  18  79 W18G33    29.73S WCI  10
LYNCHBURG      MOCLDY    38  23  55 VRB3      29.86R
DANVILLE       MOCLDY    41  34  76 N6        29.86R
SOUTH BOSTON*  CLOUDY    38  35  89 NW3       29.86S
MARTINSVILLE   CLOUDY    38  26  61 N10G18    29.90R
ROANOKE        MOCLDY    36  21  54 NW14G23   29.89R
BLACKSBURG     CLOUDY    30  22  71 W10       29.89R WCI  21
DUBLIN*        FLURRIES  32  24  72 NW14G20   29.88S WCI  22
MARION*        FLURRIES  31  22  69 NW7       29.90R
HILLSVILLE*    CLOUDY    30  22  72 NW15G25   29.83S WCI  19
RICHLANDS*     FLURRIES  28  21  76 NW10G17   29.90S WCI  18
WISE*          FLURRIES  28  23  80 NW8       29.94R
ABINGDON*      LGT SNOW  33  28  83 N6        29.93R
$$

MDZ021>025-VAZ099-100-280600-
SOUTHERN MARYLAND AND THE DELMARVA PENINSULA

CITY           SKY/WX    TMP DP  RH WIND       PRES   REMARKS
PATUXENT RIVER MOCLDY    41  33  73 NW12      29.81S
BAY BRIDGE APT   N/A     41  28  60 N9G18     29.82S
LEONARDTOWN    MOCLDY    37  32  81 NW6       29.82S
DOVER          MOCLDY    40  33  75 NW7       29.79F
GEORGETOWN     CLOUDY    40  37  89 NW3       29.79F
EASTON         MOCLDY    43  32  66 N8        29.84S
CAMBRIDGE      MOCLDY    43  34  70 N8G16     29.79F
SALISBURY      CLOUDY    40  38  93 NW7       29.78S FOG
OCEAN CITY     CLOUDY    39  37  92 NW7       29.78S FOG
WALLOPS ISLAND CLOUDY    39  37  92 N8        29.77F FOG
ACCOMACK*      CLOUDY    41  37  87 NW6       29.77F
$$

NCZ012>017-030>032-280600-
NORTH CENTRAL AND EASTERN NORTH CAROLINA

CITY           SKY/WX    TMP DP  RH WIND       PRES   REMARKS
ROANOKE RAPIDS CLOUDY    37  36  93 NW5       29.82S
RALEIGH        CLOUDY    41  38  89 CALM      29.85R
ELIZABETH CITY CLOUDY    41  37  86 N13       29.77F
AHOSKIE*       MOCLDY    38  37  95 CALM      29.82R
EDENTON*       CLOUDY    41  38  91 N7        29.79R
CURRITUCK*     CLOUDY    42  36  78 N8        29.78S
KILL DEVIL HLS DRIZZLE   39  38  95 N10G18    29.74F
MANTEO         CLOUDY    39  38  94 N17G26    29.75F
CAPE HATTERAS  CLOUDY    42  38  85 N13G30    29.74R
TARBORO*       FAIR      39  37  92 NW5       29.83S
GOLDSBORO      FAIR      41  40  99 NW6       29.81R
WASHINGTON     CLOUDY    41  39  93 NW5       29.80R
GREENVILLE     PTCLDY    39  37  93 NW5       29.84R
NEW BERN       CLOUDY    43  39  86 N13       29.80S
WILMINGTON     MOCLDY    44  39  82 N8        29.81R
$$

VAZ048-280600-
ELSEWHERE

CITY           SKY/WX    TMP DP  RH WIND       PRES   REMARKS
HARRISBURG PA  CLOUDY    36  18  48 NW17      29.86S
BALTIMORE      PTCLDY    39  24  55 NW13G20   29.83R
ANNAPOLIS      MOCLDY    42  26  53 N15G24    29.82S
ANDREWS AFB    PTCLDY    39  23  52 N12       29.82R
PHILADELPHIA   MOCLDY    41  23  48 N10       29.81S
HENDERSON NC   RAIN      38  37  92 NW5       29.84S
GREENSBORO     CLOUDY    42  32  67 N3        29.84R
ROCKY MOUNT    MOCLDY    39  36  89 NW3       29.83S
$$

VAZ100-280600-
MARINE

STATION/POSITION TIME  TEMP    WIND        PRES    WAVE   SWELL
                       AIR SEA DIR/SP/G            HT/PER HT/PER
                 (UTC) (F)     (DEG/KT/KT) (MB)    (FT/S) (FT/S)
BRANDYWINE LGT   0400   41 40   10/ 10/ 10 1008.7R
CAPE MAY NJ      0400   42 43  360/  2/  5 1008.1R
LEWES DE         0400   43 43  330/  8/  9 1008.6R
15NM E FENWICK I 0450   41 40              1007.5F   5/11
OCEAN-CITY-INLET 0412          340/  7/  9   N/A
WACHAPREAGUE VA  0400   39 49  320/  2/  5 1008.3F
THOMAS POINT MD  0500                        N/A
COVE POINT MD    0400   41     330/  8/ 11 1009.2S
SOLOMONS ISLAND  0412      43                N/A
BISHOPS HEAD MD  0400   42 46  310/  8/ 10 1008.6R
PINEY POINT MD   0406          320/  8/  8   N/A
CAMBRIDGE MD     0400   43 45  320/  8/  9 1009.1S
LEWISETTA VA     0400   40 45              1009.0F
RAPPAHANNOCK LGT 0400          320/ 12/ 13 1009.1F
STINGRAY PT      0500   41 45  320/ 12/ 14   N/A
YORK RVR RNG VA  0400          340/ 10/ 12   N/A
YORKTOWN VA      0400          320/ 10/ 12   N/A
DOMINION TERM VA 0400   41     360/  8/  9 1008.8S
KIPTOPEKE VA     0400      49   10/  6/  8   N/A
CHES BAY BRIDGE  0412          350/ 12/ 14   N/A
CAPE HENRY VA    0400   41     350/ 14/ 16 1007.3R
CHESAPEAKE LGHT  0400   40      20/ 17/ 18 1008.5R
WILLOUBY STN VA  0400   41     350/ 10/ 12 1009.0R
S CRANEY ISL VA  0400          360/ 11/ 14   N/A
CAPE HENRY BUOY  0428      41                N/A     5/10   2/11
1ST LANDING BUOY 0500   41     340/ 12/ 16 1008.0F   3/ 4
OFFSHORE WE BUOY 0411      40                N/A     6/ 9   3/ 9
64NM E OF VA BCH 0450   44 57  360/ 27/ 33 1004.8F  10/ 7   2/16
DUCK PIER NC     0400           10/ 19/ 21   N/A
44056 DUCK FRF   0411      41                N/A     6/ 7   2/11
OREGON INLET NC  0400   39 46  350/ 16/ 23 1007.1R
HATTERAS NC      0412          360/ 25/ 30   N/A
CAPE LOOKOUT NC  0500   44     360/ 14/ 17 1007.0F
$$


USA.gov is the U.S. government's official web portal to all federal, state and local government web resources and services.